Big Bear Station Historical Data
Daily Summary for June 23, 2017 Units:  English    Metric   Both
Next Day »
Daily Weekly Monthly Yearly Custom
  High: Low: Average:
Temperature: 92.3 °F 52.3 °F 71.8 °F
Dew Point: 52.8 °F 32.8 °F 40 °F
Humidity: 74% 15% 37%
Wind Speed: 7.3mph 0.0mph 1.9mph
Wind Gust: -999.0mph - -
Wind- - West
Pressure: 30.28 in 30.22 in -
Precipitation: 0.00 in    
Historical Graphs
 
 
Tabular Data for June 23, 2017
Time Temperature Dew Point Pressure Wind Wind Speed Wind Gust Humidity Rainfall Rate (Hourly)
00:06 59.2 °F 37.3 °F 30.24 in SSE 1.7 mph -999.0 mph 44% 0 in
00:21 59.0 °F 34.7 °F 30.24 in Calm   -999.0 mph 40% 0 in
00:36 58.8 °F 36.3 °F 30.24 in Calm   -999.0 mph 43% 0 in
00:52 57.7 °F 38.1 °F 30.24 in Calm   -999.0 mph 48% 0 in
01:07 57.9 °F 38.9 °F 30.23 in South 2.7 mph -999.0 mph 49% 0 in
01:22 57.4 °F 36.2 °F 30.23 in Calm   -999.0 mph 45% 0 in
01:37 57.6 °F 35.3 °F 30.23 in South 1.7 mph -999.0 mph 43% 0 in
01:53 56.8 °F 34.5 °F 30.23 in Calm   -999.0 mph 43% 0 in
02:08 57.0 °F 36.4 °F 30.23 in Calm   -999.0 mph 46% 0 in
02:23 56.5 °F 39.1 °F 30.23 in Calm   -999.0 mph 52% 0 in
02:38 55.9 °F 39.0 °F 30.23 in Calm   -999.0 mph 53% 0 in
02:53 56.1 °F 37.2 °F 30.23 in Calm   -999.0 mph 49% 0 in
03:09 55.8 °F 41.2 °F 30.22 in Calm   -999.0 mph 58% 0 in
03:24 55.0 °F 38.2 °F 30.22 in Calm   -999.0 mph 53% 0 in
03:39 54.5 °F 36.7 °F 30.22 in Calm   -999.0 mph 51% 0 in
03:54 54.5 °F 42.2 °F 30.22 in Calm   -999.0 mph 63% 0 in
04:09 53.8 °F 40.7 °F 30.22 in Calm   -999.0 mph 61% 0 in
04:25 53.8 °F 41.1 °F 30.22 in Calm   -999.0 mph 62% 0 in
04:40 53.6 °F 40.5 °F 30.22 in SSE 1.7 mph -999.0 mph 61% 0 in
04:55 53.2 °F 41.3 °F 30.23 in Calm   -999.0 mph 64% 0 in
05:10 53.2 °F 42.5 °F 30.23 in Calm   -999.0 mph 67% 0 in
05:25 52.7 °F 41.7 °F 30.23 in Calm   -999.0 mph 66% 0 in
05:41 52.9 °F 40.6 °F 30.24 in Calm   -999.0 mph 63% 0 in
05:56 52.7 °F 42.4 °F 30.24 in Calm   -999.0 mph 68% 0 in
06:11 52.5 °F 42.6 °F 30.24 in Calm   -999.0 mph 69% 0 in
06:26 52.3 °F 44.3 °F 30.24 in Calm   -999.0 mph 74% 0 in
06:41 53.6 °F 42.1 °F 30.25 in Calm   -999.0 mph 65% 0 in
06:57 53.4 °F 43.5 °F 30.25 in Calm   -999.0 mph 69% 0 in
07:12 54.9 °F 46.0 °F 30.25 in Calm   -999.0 mph 72% 0 in
07:27 55.9 °F 46.6 °F 30.25 in Calm   -999.0 mph 71% 0 in
07:42 56.3 °F 46.3 °F 30.26 in Calm   -999.0 mph 69% 0 in
07:57 57.7 °F 47.6 °F 30.26 in Calm   -999.0 mph 69% 0 in
08:13 60.3 °F 48.9 °F 30.26 in Calm   -999.0 mph 66% 0 in
08:28 62.4 °F 50.1 °F 30.26 in Calm   -999.0 mph 64% 0 in
08:43 65.3 °F 52.8 °F 30.26 in Calm   -999.0 mph 64% 0 in
08:58 68.7 °F 42.1 °F 30.27 in Calm   -999.0 mph 38% 0 in
09:14 70.7 °F 40.2 °F 30.26 in Calm   -999.0 mph 33% 0 in
09:29 75.7 °F 33.0 °F 30.27 in South 2.7 mph -999.0 mph 21% 0 in
09:59 80.1 °F 32.8 °F 30.27 in WNW 3.2 mph -999.0 mph 18% 0 in
10:14 81.3 °F 36.4 °F 30.27 in NNW 3.7 mph -999.0 mph 20% 0 in
10:30 82.2 °F 34.5 °F 30.27 in East 2.7 mph -999.0 mph 18% 0 in
10:45 82.8 °F 33.5 °F 30.27 in Calm   -999.0 mph 17% 0 in
11:00 83.1 °F 33.8 °F 30.27 in NE 4.2 mph -999.0 mph 17% 0 in
11:16 84.2 °F 33.2 °F 30.27 in NW 4.2 mph -999.0 mph 16% 0 in
11:31 85.3 °F 37.0 °F 30.27 in NNW 4.2 mph -999.0 mph 18% 0 in
11:46 86.4 °F 37.9 °F 30.27 in NW 4.7 mph -999.0 mph 18% 0 in
12:01 87.1 °F 35.5 °F 30.27 in SE 1.1 mph -999.0 mph 16% 0 in
12:16 89.4 °F 37.3 °F 30.27 in NNW 4.7 mph -999.0 mph 16% 0 in
12:32 89.6 °F 35.8 °F 30.27 in North 2.7 mph -999.0 mph 15% 0 in
12:47 90.9 °F 41.6 °F 30.27 in NNW 4.2 mph -999.0 mph 18% 0 in
13:02 90.7 °F 39.9 °F 30.27 in North 3.7 mph -999.0 mph 17% 0 in
13:17 92.3 °F 44.1 °F 30.27 in NNW 2.7 mph -999.0 mph 19% 0 in
13:32 91.9 °F 42.4 °F 30.27 in WNW 4.7 mph -999.0 mph 18% 0 in
13:48 91.8 °F 39.2 °F 30.27 in NW 3.7 mph -999.0 mph 16% 0 in
14:03 92.1 °F 41.0 °F 30.27 in NE 6.3 mph -999.0 mph 17% 0 in
14:18 91.6 °F 40.6 °F 30.27 in WNW 4.7 mph -999.0 mph 17% 0 in
14:34 91.9 °F 39.3 °F 30.27 in NW 5.3 mph -999.0 mph 16% 0 in
14:49 91.9 °F 42.4 °F 30.26 in North 4.7 mph -999.0 mph 18% 0 in
15:05 91.2 °F 41.8 °F 30.26 in NE 4.2 mph -999.0 mph 18% 0 in
15:20 91.4 °F 43.4 °F 30.26 in NNW 4.7 mph -999.0 mph 19% 0 in
15:35 90.3 °F 43.8 °F 30.26 in WNW 4.7 mph -999.0 mph 20% 0 in
16:05 89.2 °F 44.2 °F 30.26 in NNW 5.3 mph -999.0 mph 21% 0 in
16:21 89.2 °F 42.9 °F 30.25 in NW 5.8 mph -999.0 mph 20% 0 in
16:36 89.2 °F 42.9 °F 30.25 in NNW 4.7 mph -999.0 mph 20% 0 in
16:52 89.8 °F 43.4 °F 30.25 in NNW 6.3 mph -999.0 mph 20% 0 in
17:08 91.0 °F 44.4 °F 30.25 in NW 5.8 mph -999.0 mph 20% 0 in
17:23 90.1 °F 44.9 °F 30.25 in NNW 4.2 mph -999.0 mph 21% 0 in
17:39 88.2 °F 43.4 °F 30.25 in NNW 4.2 mph -999.0 mph 21% 0 in
17:54 88.2 °F 44.6 °F 30.25 in NW 3.7 mph -999.0 mph 22% 0 in
18:10 86.0 °F 51.9 °F 30.25 in WNW 7.3 mph -999.0 mph 31% 0 in
18:25 85.3 °F 52.1 °F 30.26 in NW 4.2 mph -999.0 mph 32% 0 in
18:40 84.6 °F 45.9 °F 30.26 in NNW 2.7 mph -999.0 mph 26% 0 in
18:56 84.2 °F 44.6 °F 30.26 in WSW 1.7 mph -999.0 mph 25% 0 in
19:11 83.1 °F 45.7 °F 30.26 in NW 2.7 mph -999.0 mph 27% 0 in
19:26 79.3 °F 38.3 °F 30.26 in NNW 2.7 mph -999.0 mph 23% 0 in
19:41 77.2 °F 35.4 °F 30.27 in Calm   -999.0 mph 22% 0 in
19:57 75.7 °F 36.4 °F 30.27 in Calm   -999.0 mph 24% 0 in
20:12 74.3 °F 35.2 °F 30.27 in Calm   -999.0 mph 24% 0 in
20:27 72.9 °F 34.0 °F 30.27 in Calm   -999.0 mph 24% 0 in
20:42 71.4 °F 36.6 °F 30.27 in Calm   -999.0 mph 28% 0 in
20:57 70.0 °F 38.8 °F 30.27 in Calm   -999.0 mph 32% 0 in
21:13 69.1 °F 37.2 °F 30.27 in Calm   -999.0 mph 31% 0 in
21:28 68.2 °F 34.7 °F 30.28 in Calm   -999.0 mph 29% 0 in
21:43 67.6 °F 36.7 °F 30.28 in Calm   -999.0 mph 32% 0 in
21:58 67.3 °F 38.0 °F 30.28 in Calm   -999.0 mph 34% 0 in
22:14 66.9 °F 37.6 °F 30.28 in NW 2.2 mph -999.0 mph 34% 0 in
22:29 66.2 °F 37.7 °F 30.28 in SSE 2.7 mph -999.0 mph 35% 0 in
22:44 66.4 °F 34.8 °F 30.28 in Calm   -999.0 mph 31% 0 in
22:59 66.7 °F 34.3 °F 30.28 in SSE 3.7 mph -999.0 mph 30% 0 in
23:14 67.1 °F 32.9 °F 30.28 in SSE 1.7 mph -999.0 mph 28% 0 in
23:30 67.3 °F 33.1 °F 30.28 in South 1.7 mph -999.0 mph 28% 0 in
23:45 67.1 °F 33.8 °F 30.28 in SSE 1.7 mph -999.0 mph 29% 0 in
Big Bear CA Weather